Tracking 29892 objects as of 21-Nov-2024
HD Live streaming from Space Station
objects crossing your sky now

STARLINK-2002

Track STARLINK-2002 now!
10-day predictions
STARLINK-2002 is classified as:


NORAD ID: 47597
Int'l Code: 2021-009BB
Perigee: 518.6 km
Apogee: 520.3 km
Inclination: 53.1 °
Period: 94.9 minutes
Semi major axis: 6890 km
RCS: Unknown
Launch date: February 4, 2021
Source: United States (US)
Launch site: AIR FORCE EASTERN TEST RANGE (AFETR)
Your satellite tracking list
Your tracking list is empty




NASA's NSSDC Master Catalog

Two Line Element Set (TLE):
1 47597U 21009BB  24325.91668981  .00407976  00000-0  18822-1 0  9993
2 47597  53.0520   7.7602 0001233  71.8917 323.0771 15.17852622  5741
Source of the keplerian elements: AFSPC